[[{"header":{"parameterUnit":"m.s-1","parameterCategory":1,"la1":30.2991,"la2":30.254,"lo1":-89.0895,"lo2":-89.0444,"dy":0.0017,"dx":0.0017,"nx":28,"ny":28,"refTime":"2024-10-15T21:00:00:Z","depth":0,"parameterNumber":2,"parameterNumberName":"U-component_of_WINDS"},"data":[0,0,0,0,0,0,0,0,0,0,0,0,0,0,0,0,0,0,0,0,0,0,0,0,0,0,0,0,0,0,0,0,0,0,0,0,0,0,0,0,0,0,0,0,0,0,0,0,0,0,0,0,0,0,0,0,0,0,-4.3077,-4.3078,0,-4.3146,-4.3147,-4.3148,-4.3042,-4.3038,-4.3034,-4.3031,-4.3102,-4.3107,-4.3112,0,0,0,0,0,0,0,0,0,0,0,0,0,-4.2851,-4.2855,-4.3077,-4.3078,-4.3079,-4.3146,-4.3147,-4.3148,-4.3042,-4.3038,-4.3033,-4.3029,-4.31,-4.3106,-4.3113,0,0,0,0,0,0,0,0,0,0,0,0,0,-4.2938,-4.2857,-4.3077,-4.3034,-4.3031,-4.3146,-4.3147,-4.3148,-4.3043,-4.3038,-4.3032,-4.3027,-4.3098,-4.3106,-4.3113,-4.3274,0,0,-4.3138,-4.3141,0,0,0,0,0,0,0,0,-4.2933,-4.2946,-4.3039,-4.3037,-4.3034,-4.308,-4.3093,-4.3191,-4.3045,-4.3038,-4.3031,-4.3024,-4.3099,-4.3106,-4.3132,-4.3277,-4.328,-4.3139,-4.3143,-4.3147,-4.3149,0,0,0,0,0,0,0,-4.2927,-4.2942,-4.3104,-4.3041,-4.3037,-4.3011,-4.3017,-4.3111,-4.3099,-4.3039,-4.3031,-4.3041,-4.3096,-4.3124,-4.3132,-4.3281,-4.3138,-4.3145,-4.315,-4.3154,-4.3561,-4.3567,0,0,0,0,0,0,-4.2926,-4.2938,-4.3102,-4.3106,-4.2969,-4.3019,-4.3026,-4.3071,-4.3098,-4.3096,-4.3045,-4.3035,-4.3113,-4.3123,-4.3135,-4.3324,-4.3147,-4.3154,-4.3159,-4.3556,-4.3563,-4.3569,0,0,0,0,0,0,-4.2922,-4.2942,-4.3099,-4.302,-4.3038,-4.3029,-4.308,-4.3075,-4.3103,-4.3103,-4.31,-4.3076,-4.3109,-4.3123,-4.324,-4.3325,-4.3158,-4.3165,-4.3548,-4.3558,-4.3566,-4.3706,0,0,0,0,0,0,-4.2916,-4.2941,-4.3002,-4.3022,-4.3043,-4.3205,-4.3085,-4.308,-4.3117,-4.3105,-4.3131,-4.313,-4.3106,-4.3229,-4.3248,-4.3333,-4.3171,-4.3541,-4.3553,-4.3563,-4.3694,-4.3719,-4.374,0,0,0,0,0,-4.2908,-4.3039,-4.3006,-4.3026,-4.312,-4.321,-4.3221,-4.3191,-4.3124,-4.3186,-4.3185,-4.3129,-4.3313,-4.3241,-4.3262,-4.3352,-4.3535,-4.3549,-4.3562,-4.3683,-4.3714,-4.3739,0,0,0,0,0,0,-4.3029,-4.3041,-4.3005,-4.3146,-4.3178,-4.3192,-4.3268,-4.3224,-4.3276,-4.3262,-4.3222,-4.3229,-4.3354,-4.3364,-4.3285,-4.3508,-4.3413,-4.3431,-4.3497,-4.3526,-4.3549,-4.3545,-4.3178,0,0,0,0,0,-4.3073,-4.3145,-4.3151,-4.3275,-4.3293,-4.3278,-4.3316,-4.329,-4.3321,-4.3334,-4.3342,-4.3375,-4.3439,-4.3483,-4.3542,-4.3694,-4.3698,-4.3765,-4.3788,-4.3807,-4.3824,-4.3905,-4.3935,-4.3614,-4.3614,-4.3614,0,0,-4.3163,-4.3178,-4.3226,-4.33,-4.3321,-4.3397,-4.329,-4.3375,-4.3431,-4.3347,-4.3458,-4.3465,-4.3498,-4.3633,-4.3693,-4.3645,-4.3913,-4.3825,-4.384,-4.3846,-4.3922,-4.3952,-4.3979,-4.3623,-4.3621,-4.362,0,0,-4.3366,-4.3385,-4.349,-4.3514,-4.3548,-4.3537,-4.3562,-4.3583,-4.3584,-4.3695,-4.3633,-4.3698,-4.3811,-4.3837,-4.3865,-4.4077,-4.4027,-4.4097,-4.4219,-4.4298,-4.4323,-4.4345,-4.4422,-4.445,-4.4113,-4.4114,-4.4114,0,-4.3474,-4.3586,-4.355,-4.364,-4.3674,-4.36,-4.3707,-4.3731,-4.3783,-4.3808,-4.3753,-4.3893,-4.391,-4.405,-4.4101,-4.4126,-4.4154,-4.4095,-4.4322,-4.4344,-4.4365,-4.4437,-4.4466,-4.4122,-4.4121,-4.412,-4.412,0,-4.3718,-4.3796,-4.3877,-4.3929,-4.3972,-4.407,-4.4048,-4.4095,-4.4065,-4.406,-4.4173,-4.419,-4.4252,-4.4283,-4.4254,-4.4419,-4.4388,-4.4329,-4.4233,-4.4404,-4.4472,-4.4499,-4.4134,-4.4131,-4.4129,-4.4127,0,0,-4.4002,-4.4031,-4.4062,-4.4084,-4.4115,-4.4175,-4.4269,-4.4329,-4.4371,-4.4408,-4.4486,-4.4582,-4.4527,-4.4559,-4.4532,-4.4601,-4.4768,-4.4533,-4.4533,-4.4577,-4.4952,-4.4997,-4.503,-4.4735,-4.474,-4.4744,-4.4949,0,-4.4205,-4.4368,-4.4337,-4.4495,-4.4568,-4.4498,-4.4579,-4.4607,-4.4604,-4.4664,-4.466,-4.473,-4.4651,-4.467,-4.4735,-4.4735,-4.4843,-4.4719,-4.4807,-4.4811,-4.4803,-4.5065,-4.5114,-4.5307,-4.4975,-4.498,-4.4983,0,-4.4465,-4.4512,-4.4678,-4.4697,-4.4726,-4.48,-4.4853,-4.4911,-4.4941,-4.4933,-4.4969,-4.4928,-4.5021,-4.4922,-4.5048,-4.4965,-4.4998,-4.5003,-4.501,-4.5018,-4.4909,-4.5082,-4.5368,-4.5397,-4.5024,-4.502,-4.5017,0,-4.4657,-4.4762,-4.4875,-4.4896,-4.4921,-4.4974,-4.4987,-4.5011,-4.5049,-4.5094,-4.5118,-4.5174,-4.5205,-4.5249,-4.5224,-4.5154,-4.5355,-4.5254,-4.5352,-4.5353,-4.5399,-4.5397,-4.5696,-4.5419,-4.5418,-4.5418,-4.5417,0,-4.4889,-4.4993,-4.4961,-4.5031,-4.5145,-4.5108,-4.5223,-4.5227,-4.5248,-4.5317,-4.5259,-4.5325,-4.5287,-4.535,-4.5331,-4.5439,-4.5453,-4.545,-4.5444,-4.5456,-4.5457,-4.5479,-4.5466,-4.5425,-4.5424,-4.5422,-4.5421,0,-4.5124,-4.5107,-4.5225,-4.5238,-4.5244,-4.5328,-4.5339,-4.5404,-4.5395,-4.5483,-4.5501,-4.5489,-4.5559,-4.5538,-4.5614,-4.5601,-4.5739,-4.5715,-4.5729,-4.5724,-4.5824,-4.5815,-4.6149,-4.6191,-4.5885,-4.5888,-4.5891,0,-4.5274,-4.5353,-4.5374,-4.5416,-4.5433,-4.5502,-4.554,-4.5506,-4.5548,-4.5587,-4.5647,-4.5712,-4.5763,-4.5878,-4.5876,-4.5933,-4.5911,-4.6024,-4.5919,-4.5929,-4.5914,-4.591,-4.5918,-4.6045,-4.6049,-4.6052,-4.6054,0,-4.5542,-4.5529,-4.5587,-4.5642,-4.569,-4.5731,-4.5767,-4.5805,-4.5773,-4.5823,-4.5894,-4.5934,-4.6011,-4.6077,-4.6129,-4.614,-4.6093,-4.6087,-4.6112,-4.6127,-4.6133,-4.6132,-4.5788,-4.608,-4.6077,-4.6075,-4.6074,-4.6073,-4.574,-4.5807,-4.5833,-4.5899,-4.5922,-4.5957,-4.6018,-4.6017,-4.6076,-4.6137,-4.6112,-4.6195,-4.622,-4.6286,-4.6304,-4.6368,-4.6325,-4.6362,-4.6372,-4.6382,-4.6395,-4.6121,-4.6377,-4.6376,-4.6375,-4.6375,-4.6374,0,-4.6006,-4.6019,-4.608,-4.6133,-4.6185,-4.6134,-4.6171,-4.6217,-4.6291,-4.6319,-4.637,-4.6451,-4.6514,-4.6516,-4.6574,-4.6625,-4.6604,-4.6642,-4.6638,-4.6642,-4.643,-4.6402,-4.6657,-4.6657,-4.6657,-4.6657,-4.6657,-4.6657,-4.6151,-4.6262,-4.6252,-4.6373,-4.6384,-4.6465,-4.649,-4.6522,-4.6544,-4.6638,-4.669,-4.669,-4.6708,-4.6767,-4.6822,-4.6821,-4.6846,-4.6892,-4.6882,-4.6685,-4.6657,-4.663,-4.6604,-4.6897,-4.6897,-4.7089,-4.7091,-4.7092]},{"header":{"parameterUnit":"m.s-1","parameterCategory":1,"la1":30.2991,"la2":30.254,"lo1":-89.0895,"lo2":-89.0444,"dy":0.0017,"dx":0.0017,"nx":28,"ny":28,"refTime":"2024-10-15T21:00:00:Z","depth":0,"parameterNumber":3,"parameterNumberName":"V-component_of_WINDS"},"data":[0,0,0,0,0,0,0,0,0,0,0,0,0,0,0,0,0,0,0,0,0,0,0,0,0,0,0,0,0,0,0,0,0,0,0,0,0,0,0,0,0,0,0,0,0,0,0,0,0,0,0,0,0,0,0,0,0,0,-8.6689,-8.669,0,-8.6784,-8.6785,-8.6786,-8.6669,-8.6664,-8.666,-8.6656,-8.6747,-8.6753,-8.676,0,0,0,0,0,0,0,0,0,0,0,0,0,-8.6398,-8.6404,-8.6689,-8.669,-8.6691,-8.6784,-8.6785,-8.6787,-8.6669,-8.6664,-8.6659,-8.6654,-8.6745,-8.6753,-8.676,0,0,0,0,0,0,0,0,0,0,0,0,0,-8.6512,-8.6406,-8.6689,-8.6644,-8.6641,-8.6784,-8.6785,-8.6787,-8.667,-8.6664,-8.6657,-8.6651,-8.6742,-8.6752,-8.6761,-8.6951,0,0,-8.6791,-8.6795,0,0,0,0,0,0,0,0,-8.6506,-8.6523,-8.665,-8.6648,-8.6644,-8.6708,-8.6716,-8.6842,-8.6672,-8.6659,-8.6656,-8.6648,-8.6739,-8.6748,-8.678,-8.6955,-8.6959,-8.6792,-8.6798,-8.6802,-8.6805,0,0,0,0,0,0,0,-8.6498,-8.6518,-8.6726,-8.6651,-8.6648,-8.6617,-8.6626,-8.6739,-8.6734,-8.666,-8.6651,-8.6665,-8.6736,-8.6771,-8.6782,-8.696,-8.6791,-8.68,-8.6806,-8.681,-8.7293,-8.7299,0,0,0,0,0,0,-8.6496,-8.6512,-8.6723,-8.6729,-8.6558,-8.6627,-8.6638,-8.6694,-8.6732,-8.6732,-8.667,-8.6659,-8.6758,-8.677,-8.6784,-8.7007,-8.6802,-8.6811,-8.6816,-8.7286,-8.7294,-8.7302,0,0,0,0,0,0,-8.649,-8.6516,-8.672,-8.6619,-8.6642,-8.6639,-8.6704,-8.6699,-8.6734,-8.674,-8.6738,-8.6708,-8.6753,-8.6771,-8.691,-8.7009,-8.6815,-8.6824,-8.7277,-8.7288,-8.7298,-8.7456,0,0,0,0,0,0,-8.6483,-8.6515,-8.6589,-8.6621,-8.6648,-8.6847,-8.671,-8.6706,-8.6752,-8.6738,-8.6775,-8.6775,-8.675,-8.6896,-8.692,-8.7019,-8.6831,-8.7268,-8.7282,-8.7295,-8.7442,-8.7471,-8.7495,0,0,0,0,0,-8.6473,-8.6628,-8.6593,-8.6619,-8.6741,-8.6853,-8.6868,-8.6838,-8.6761,-8.6833,-8.6837,-8.6773,-8.6995,-8.6912,-8.6937,-8.704,-8.7262,-8.7278,-8.7294,-8.743,-8.7465,-8.7495,0,0,0,0,0,0,-8.6605,-8.6632,-8.6593,-8.6764,-8.6807,-8.6833,-8.6924,-8.6876,-8.694,-8.6924,-8.6882,-8.6891,-8.704,-8.7054,-8.6961,-8.7225,-8.7115,-8.7137,-8.721,-8.7244,-8.727,-8.7263,-8.684,0,0,0,0,0,-8.6655,-8.6746,-8.6763,-8.6912,-8.6936,-8.6927,-8.6974,-8.6948,-8.6989,-8.7006,-8.702,-8.7061,-8.714,-8.7192,-8.7265,-8.7443,-8.7448,-8.7527,-8.7553,-8.7575,-8.7594,-8.7688,-8.7723,-8.7354,-8.7353,-8.7353,0,0,-8.6757,-8.6783,-8.6843,-8.694,-8.697,-8.7063,-8.6943,-8.7046,-8.7114,-8.7021,-8.7154,-8.7166,-8.7209,-8.7369,-8.7439,-8.7385,-8.7697,-8.7595,-8.7613,-8.762,-8.7708,-8.7743,-8.7774,-8.7364,-8.7362,-8.7361,0,0,-8.6991,-8.7021,-8.7148,-8.7181,-8.7229,-8.7222,-8.7253,-8.7285,-8.729,-8.7423,-8.7355,-8.7434,-8.7571,-8.7604,-8.7639,-8.7885,-8.7828,-8.791,-8.8049,-8.8141,-8.817,-8.8195,-8.8282,-8.8314,-8.7929,-8.7929,-8.7929,0,-8.7112,-8.7252,-8.7219,-8.7328,-8.7372,-8.7294,-8.7421,-8.7454,-8.7523,-8.7553,-8.7492,-8.7661,-8.7684,-8.785,-8.791,-8.7942,-8.7973,-8.7905,-8.8169,-8.8194,-8.8217,-8.8299,-8.8332,-8.7938,-8.7937,-8.7936,-8.7935,0,-8.7398,-8.7495,-8.7592,-8.7663,-8.7717,-8.7834,-8.7817,-8.7876,-8.7844,-8.7842,-8.7977,-8.8003,-8.8079,-8.8116,-8.8086,-8.8278,-8.8242,-8.8176,-8.8064,-8.8262,-8.8339,-8.837,-8.7952,-8.7949,-8.7946,-8.7943,0,0,-8.7718,-8.7769,-8.7805,-8.7836,-8.7883,-8.7956,-8.8069,-8.8145,-8.8196,-8.8245,-8.8337,-8.8455,-8.8393,-8.8433,-8.8405,-8.8486,-8.8678,-8.8409,-8.8409,-8.8457,-8.8889,-8.8939,-8.8976,-8.8641,-8.8647,-8.8651,-8.8885,0,-8.7952,-8.8151,-8.8124,-8.8313,-8.8402,-8.8329,-8.8427,-8.8465,-8.8466,-8.8539,-8.8539,-8.8623,-8.8536,-8.8559,-8.8636,-8.8639,-8.8764,-8.8621,-8.8724,-8.8728,-8.8715,-8.9016,-8.9069,-8.9289,-8.8915,-8.892,-8.8924,0,-8.8252,-8.8315,-8.8514,-8.8547,-8.8583,-8.8672,-8.8739,-8.8811,-8.8851,-8.8846,-8.8891,-8.8848,-8.8958,-8.8846,-8.8996,-8.89,-8.894,-8.8947,-8.8955,-8.8963,-8.8838,-8.9031,-8.9358,-8.9391,-8.8971,-8.8967,-8.8964,0,-8.8465,-8.8599,-8.8735,-8.8764,-8.8805,-8.8869,-8.8889,-8.8923,-8.8971,-8.9028,-8.9058,-8.9127,-8.9165,-8.9219,-8.9195,-8.9116,-8.9349,-8.9235,-8.9346,-8.9347,-8.9398,-8.9395,-8.9736,-8.9426,-8.9425,-8.9425,-8.9424,0,-8.873,-8.8854,-8.8831,-8.8915,-8.9051,-8.9018,-8.9153,-8.9163,-8.9195,-8.9277,-8.9217,-8.9295,-8.9259,-8.9334,-8.9316,-8.9442,-8.946,-8.9457,-8.9451,-8.9463,-8.9463,-8.9488,-8.9472,-8.9433,-8.9431,-8.943,-8.9428,0,-8.8991,-8.8981,-8.9124,-8.9152,-8.9162,-8.9261,-8.9283,-8.936,-8.9357,-8.9462,-8.9484,-8.9478,-8.9563,-8.9545,-8.9638,-8.9625,-8.9784,-8.9758,-8.9771,-8.9765,-8.9877,-8.9866,-9.0245,-9.0292,-8.9952,-8.9955,-8.9958,0,-8.916,-8.9254,-8.9292,-8.9345,-8.937,-8.9454,-8.9502,-8.9472,-8.9525,-8.9578,-8.9648,-8.9728,-8.9791,-8.993,-8.9932,-9.0002,-8.9977,-9.0105,-8.9987,-8.9996,-8.9978,-8.9973,-8.9981,-9.0128,-9.0132,-9.0135,-9.0138,0,-8.946,-8.9451,-8.9524,-8.9597,-8.9656,-8.9711,-8.9759,-8.9805,-8.9778,-8.9839,-8.9927,-8.9976,-9.0071,-9.0151,-9.0216,-9.0232,-9.0181,-9.0175,-9.0204,-9.0217,-9.022,-9.0219,-8.9834,-9.0166,-9.0164,-9.0162,-9.016,-9.0159,-8.968,-8.976,-8.98,-8.9883,-8.9917,-8.9963,-9.0037,-9.0043,-9.0116,-9.0193,-9.017,-9.0269,-9.0305,-9.0387,-9.0413,-9.0488,-9.044,-9.0482,-9.0493,-9.0504,-9.0517,-9.0209,-9.0499,-9.0499,-9.0498,-9.0497,-9.0496,0,-8.9977,-8.9999,-9.0076,-9.0147,-9.0212,-9.0159,-9.021,-9.0267,-9.0356,-9.0395,-9.0458,-9.0558,-9.0634,-9.0643,-9.0715,-9.0773,-9.0751,-9.0793,-9.0788,-9.0792,-9.0557,-9.0524,-9.081,-9.081,-9.081,-9.081,-9.0809,-9.0809,-9.0139,-9.0271,-9.0267,-9.0414,-9.0434,-9.0533,-9.0566,-9.0608,-9.0639,-9.0753,-9.0818,-9.0823,-9.085,-9.0923,-9.099,-9.099,-9.1019,-9.107,-9.1061,-9.084,-9.0809,-9.0779,-9.0748,-9.1077,-9.1077,-9.129,-9.1292,-9.1294]}]]